Weather History for Eastover, SC

Change the Weather History Date:

Sunday, January 19, 2014

  Actual Average Record
Temperature  
Mean Temperature 43 °F -  
Max Temperature 58 °F 53 °F 75 °F (2001)
Min Temperature 28 °F 33 °F 17 °F (2005)
Degree Days  
Heating Degree Days 22    
Moisture  
Dew Point 24 °F    
Average Humidity 46    
Maximum Humidity 77    
Minimum Humidity 29    
Precipitation  
Precipitation 0.00 in - - ()
Sea Level Pressure  
Sea Level Pressure 30.03 in    
Wind  
Wind Speed 6 mph (SW)    
Max Wind Speed 17 mph    
Max Gust Speed 25 mph    
Visibility 10 miles    
Events      
Averages and records for this station are not official NWS values.
T = Trace of Precipitation, MM = Missing Value Source: NWS Daily Summary

Daily Weather History Graph

Daily Weather History Graph

Search for Another Location

Airport:

Trip Planner

Search our weather history database for the weather conditions in past years. The results will help you decide how hot, cold, wet, or windy it might be!

Date:

Astronomy

Jan. 19, 2014 Rise Set
Actual Time 7:27 AM EST 5:41 PM EST
Civil Twilight 7:00 AM EST 6:08 PM EST
Nautical Twilight 6:29 AM EST 6:38 PM EST
Astronomical Twilight 5:59 AM EST 7:08 PM EST
Moon 9:05 PM EST (1/19) 9:07 AM EST (1/19)
Length of Visible Light 11h 07m
Length of Day
10h 14m
Waning Gibbous, 89% of the Moon is Illuminated
Jan 19
Waning Gibbous
Jan 24
Last Quarter
Jan 30
New
Feb 6
First Quarter
Feb 14
Full

Hourly Weather History & Observations

Time (EST) Temp. Windchill Dew Point Humidity Pressure Visibility Wind Dir Wind Speed Gust Speed Precip Events Conditions
12:58 AM 28.0 °F - 20.7 °F 74% 30.08 in 10.0 mi South 2.3 mph - N/A   Scattered Clouds
1:58 AM 31.6 °F - 20.5 °F 63% 30.06 in 10.0 mi SSE 1.2 mph - N/A   Partly Cloudy
2:58 AM 34.7 °F 31.8 °F 18.9 °F 52% 30.04 in 10.0 mi SSW 3.5 mph - N/A   Overcast
3:58 AM 35.4 °F 30.5 °F 19.4 °F 52% 30.04 in 10.0 mi SSW 5.8 mph - N/A   Mostly Cloudy
4:58 AM 40.1 °F 34.1 °F 16.3 °F 38% 30.01 in 10.0 mi West 9.2 mph - N/A   Clear
5:58 AM 39.9 °F 34.5 °F 16.9 °F 39% 30.01 in 10.0 mi SW 8.1 mph - N/A   Clear
6:58 AM 40.1 °F 34.7 °F 18.0 °F 41% 30.03 in 10.0 mi SW 8.1 mph - N/A   Mostly Cloudy
7:58 AM 39.9 °F 36.7 °F 19.6 °F 44% 30.04 in 10.0 mi SSW 4.6 mph - N/A   Partly Cloudy
8:58 AM 40.6 °F 36.7 °F 23.7 °F 51% 30.04 in 10.0 mi SSW 5.8 mph - 0.00 in   Scattered Clouds
9:58 AM 47.1 °F - 26.2 °F 44% 30.04 in 10.0 mi WSW 12.7 mph - N/A   Clear
10:58 AM 51.1 °F - 26.6 °F 39% 30.05 in 10.0 mi WSW 11.5 mph - N/A   Clear
11:58 AM 54.0 °F - 27.1 °F 36% 30.04 in 10.0 mi West 15.0 mph - N/A   Clear
12:58 PM 56.1 °F - 28.0 °F 34% 29.99 in 10.0 mi WSW 13.8 mph - N/A   Clear
1:58 PM 58.3 °F - 27.5 °F 31% 29.97 in 10.0 mi WSW 17.3 mph 25.3 mph N/A   Clear
2:58 PM 58.8 °F - 27.0 °F 30% 29.97 in 10.0 mi WSW 13.8 mph 19.6 mph N/A   Clear
3:58 PM 58.1 °F - 25.5 °F 29% 29.99 in 10.0 mi West 12.7 mph - N/A   Clear
4:58 PM 56.3 °F - 26.1 °F 31% 30.00 in 10.0 mi WSW 10.4 mph 17.3 mph N/A   Clear
5:58 PM 51.8 °F - 25.7 °F 36% 30.01 in 10.0 mi West 5.8 mph - N/A   Clear
6:58 PM 49.6 °F - 25.5 °F 39% 30.03 in 10.0 mi WSW 2.3 mph - N/A   Clear
7:58 PM 46.4 °F 44.3 °F 26.8 °F 46% 30.04 in 10.0 mi WSW 4.6 mph - N/A   Clear
8:58 PM 41.7 °F - 27.5 °F 57% 30.04 in 10.0 mi West 2.3 mph - N/A   Clear
9:58 PM 39.4 °F 37.2 °F 27.3 °F 62% 30.04 in 10.0 mi South 3.5 mph - N/A   Clear
10:58 PM 39.6 °F - 26.1 °F 58% 30.03 in 10.0 mi Calm Calm - N/A   Clear
11:58 PM 34.3 °F - 27.7 °F 77% 30.02 in 10.0 mi West 2.3 mph - N/A   Clear